Nassau, Bahamas

3:16 AM EST on February 25, 2017 (GMT -0500)
Nassau International

Weather History for MYNN - August, 2014

Change the Weather History Date:

Sunday, August 31, 2014

  Actual Average Record
Temperature  
Mean Temperature 84 °F -  
Max Temperature 90 °F 88 °F 95 °F (2005)
Min Temperature 77 °F 74 °F 71 °F (1996)
Cooling Degree Days 18    
Growing Degree Days 34 (Base 50)    
Moisture  
Dew Point 75 °F    
Average Humidity 73    
Maximum Humidity 89    
Minimum Humidity 50    
Precipitation  
Precipitation 0.16 in 0.22 in - ()
Sea Level Pressure  
Sea Level Pressure 30.10 in    
Wind  
Wind Speed 6 mph ()    
Max Wind Speed 25 mph    
Max Gust Speed -    
Visibility 6.6 miles    
Events Rain    
Averages and records for this station are not official NWS values.
T = Trace of Precipitation, MM = Missing Value Source: Averaged Metar Reports

Daily Weather History Graph

Daily Weather History Graph

Search for Another Location

Airport or City:

Trip Planner

Search our weather history database for the weather conditions in past years. The results will help you decide how hot, cold, wet, or windy it might be!

Date:

Astronomy

Aug. 31, 2014 Rise Set
Actual Time 6:50 AM EDT 7:29 PM EDT
Civil Twilight 6:27 AM EDT 7:52 PM EDT
Nautical Twilight 5:59 AM EDT 8:20 PM EDT
Astronomical Twilight 5:32 AM EDT 8:47 PM EDT
Moon 11:57 AM EDT (8/31) 11:21 PM EDT (8/31)
Length of Visible Light 13h 25m
Length of Day
12h 39m
Waxing Crescent, 32% of the Moon is Illuminated
Aug 31
Waxing Crescent
Sep 2
First Quarter
Sep 8
Full
Sep 15
Last Quarter
Sep 24
New

Hourly Weather History & Observations

Time (EDT) Temp. Heat Index Dew Point Humidity Pressure Visibility Wind Dir Wind Speed Gust Speed Precip Events Conditions
12:00 AM 84.2 °F 92.3 °F 75.2 °F 74% 30.11 in 6.2 mi East 6.9 mph - N/A   Scattered Clouds
1:00 AM 82.4 °F 89.5 °F 75.2 °F 79% 30.10 in 6.2 mi ESE 6.9 mph - N/A   Scattered Clouds
2:00 AM 83 °F - 76 °F 75% 30.11 in 8 mi East 9.2 mph - -  
2:00 AM 82.4 °F 90.9 °F 77.0 °F 84% 30.10 in 6.2 mi East 9.2 mph - N/A   Scattered Clouds
3:00 AM 82.4 °F 89.5 °F 75.2 °F 79% 30.09 in 6.2 mi East 3.5 mph - N/A   Scattered Clouds
4:00 AM 80.6 °F 86.2 °F 75.2 °F 84% 30.09 in 6.2 mi Calm Calm - N/A   Partly Cloudy
5:00 AM 80 °F - 76 °F 85% 30.08 in 8 mi East 4.6 mph - -   Partly Cloudy
5:00 AM 80.6 °F 87.1 °F 77.0 °F 89% 30.08 in 6.2 mi East 4.6 mph - N/A   Scattered Clouds
6:00 AM 80.6 °F 85.4 °F 73.4 °F 79% 30.11 in 6.2 mi Calm Calm - N/A   Partly Cloudy
7:00 AM 80.6 °F 86.2 °F 75.2 °F 84% 30.11 in 6.2 mi East 3.5 mph - N/A   Partly Cloudy
8:00 AM 82 °F - 77 °F 82% 30.12 in 8 mi East 5.8 mph - -   Partly Cloudy
8:00 AM 82.4 °F 90.9 °F 77.0 °F 84% 30.12 in 6.2 mi East 5.8 mph - N/A   Partly Cloudy
9:00 AM 84.2 °F 90.9 °F 73.4 °F 70% 30.13 in 6.2 mi SE 6.9 mph - N/A   Scattered Clouds
10:00 AM 87.8 °F 93.8 °F 71.6 °F 58% 30.13 in 6.2 mi East 5.8 mph - N/A   Scattered Clouds
11:00 AM 90 °F - 74 °F 50% 30.14 in 8 mi North 8.1 mph - -   Partly Cloudy
11:00 AM 89.6 °F 98.2 °F 73.4 °F 59% 30.14 in 6.2 mi East 8.1 mph - N/A   Scattered Clouds
12:00 PM 80.6 °F 86.2 °F 75.2 °F 84% 30.14 in 6.2 mi East 4.6 mph - N/A   Scattered Clouds
1:00 PM 87.8 °F 95.6 °F 73.4 °F 62% 30.12 in 6.2 mi East 11.5 mph - N/A   Scattered Clouds
2:00 PM 90 °F - 74 °F 51% 30.11 in 8 mi East 6.9 mph - -   Partly Cloudy
2:00 PM 89.6 °F 98.2 °F 73.4 °F 59% 30.08 in 6.2 mi East 6.9 mph - N/A   Scattered Clouds
3:00 PM 87.8 °F 95.6 °F 73.4 °F 62% - 6.2 mi East 9.2 mph - N/A   Scattered Clouds
4:00 PM 89.6 °F 98.2 °F 73.4 °F 59% 30.06 in 6.2 mi East 10.4 mph - N/A   Partly Cloudy
5:00 PM - - 75 °F % 30.06 in 8 mi NNE 25.3 mph - -   Partly Cloudy
5:00 PM 89.6 °F 99.8 °F 75.2 °F 62% 30.06 in 6.2 mi ESE 11.5 mph - N/A   Scattered Clouds
6:00 PM 87.8 °F 95.6 °F 73.4 °F 62% 30.06 in 6.2 mi East 8.1 mph - N/A   Scattered Clouds
7:00 PM 86.0 °F 93.4 °F 73.4 °F 66% 30.06 in 6.2 mi ESE 9.2 mph - N/A   Scattered Clouds
8:00 PM 83 °F - 77 °F 78% 30.06 in 8 mi ESE 6.9 mph - - Rain Light Rain Showers
8:00 PM 82.4 °F 90.9 °F 77.0 °F 84% 30.06 in 6.2 mi ESE 6.9 mph - N/A   Scattered Clouds
9:00 PM 78.8 °F - 71.6 °F 78% 30.08 in 6.2 mi Calm Calm - N/A   Scattered Clouds
10:00 PM 80.6 °F 86.2 °F 75.2 °F 84% 30.09 in 6.2 mi Calm Calm - N/A   Unknown
11:00 PM 82 °F - 77 °F 81% 30.11 in 8 mi East 3.5 mph - -   Partly Cloudy
11:00 PM 82.4 °F 90.9 °F 77.0 °F 84% 30.11 in 6.2 mi East 3.5 mph - N/A   Partly Cloudy